Showing default

NORSAT 1, 42826

Orbit data source: Space-Track

NORSAT 1, 42826 is a payload satellite owned by Statsat (NO) in SSO that was launched on Fri, 14 Jul 2017 UTC via a SOYUZ-2-1A launch vehicle from the Tyuratam Missile And Space Complex (TTMTR). Payloads include a variety of satellites, spacecraft, and rockets equipped with specific instruments for various scientific and technological missions. These include communications satellites like Starlink; space stations such as the ISS; scientific satellites like the Hubble; Earth observation satellites from companies like Planet Labs, Umbra, and HawkEye 360; GPS; miniature CubeSats for education and research; and military/defense satellites.

Loading next visibility...
NORSAT 1 details
Identifier
42826, 2017-042B
Orbit
SSO
Last TLE update23 hours ago
Origin
Flag of NOStatsat (NO / NOR)
ManufacturerUTIAS-SFL
MissionOperational Commercial Communications
Bus & MotorGNB, Unknown motor
Mass30 kg wet, 30 kg dry
Launch date (UTC)
2017-07-14 (7 years ago)
Launch vehicle
SOYUZ-2-1A
Launch site
Tyuratam Missile And Space Complex (TTMTR)
Object type
Payload
Rocket body
Debris
Shape & HBRBox + 2 Pan + 4 Ant, 0.92 m
Radar Cross Section0.202 m², Medium (>0.1 m² and < 1m²)

Expand to show TLE details & history

TLE from 23 hours ago
0 NORSAT 1
1 42826U 17042B   24338.45058291  .00015135  00000-0  11099-2 0  9997
2 42826  97.4026 153.1807 0008554 210.3723 149.7008 15.03566338402653
Epoch: 2024-12-03T10:48Z
Definitive object data (Epoch: 2024-12-03T10:48:50.363Z)
Latitude-0.00008°
Longitude-81.78905°
Altitude564.102 km
Speed7.576 km/s
True Right ascension10h 12m 43s
True Declination0° 00' 00"
Sunlit
Object was in daylight at TLE epoch
Visualization TLE readout
Latitude42.02087°
Longitude-87.57637°
Altitude567.757 km
Speed7.578 km/s
Apparent Right ascension14h 15m 16s
Apparent Declination9° 31' 07"
Sunlit
Object is in full shadow
Visualization observer readout
Local Sidereal Time07:16:01
Azimuth73.159° E
Elevation-5.006°
Doppler factor1
Orbital elements
Apogee altitude558.826 km
Perigee altitude546.969 km
Semi-major axis6,931.035 km
Eccentricity0.0008554
Inclination97.4026°
RAAN153.1807°
Arg. of periapsis210.3723°
True anomaly149.75021°
Mean anomaly149.7008°
Eccentric anomaly149.72551°
Mean motion3.76137 °/min
BSTAR0.0011099
Orbital period95.71 mins
Loading maneuver chart data...

NORSAT 1 Visibility forecast

Observer location: undefined°, undefined

Span
Click to sort rows by Start time (UTC) header in descending order
Start Az.
Max El. time (UTC)
Max El. Az.
Max El.
End time (UTC)
End Az.
4 mins2024-12-04 10:55:44.883Z105.041° ESE2024-12-04 10:57:44.883Z71.52° E17.307°2024-12-04 10:59:44.883Z35.61° NE
5 mins2024-12-04 12:30:44.883Z217.273° SW2024-12-04 12:32:44.883Z269.176° W27.961°2024-12-04 12:35:44.883Z324.693° NNW
5 mins2024-12-05 00:08:44.883Z53.426° ENE2024-12-05 00:10:44.883Z105.908° ESE26.989°2024-12-05 00:13:44.883Z158.568° S
4 mins2024-12-05 01:43:44.883Z317.438° NNW2024-12-05 01:44:44.883Z298.955° NW17.322°2024-12-05 01:47:44.883Z248.762° W
|